Time,TemperatureF,DewpointF,PressureIn,WindDirection,WindDirectionDegrees,WindSpeedMPH,WindSpeedGustMPH,Humidity,HourlyPrecipIn,Conditions,Clouds,dailyrainin,SoftwareType,DateUTC
2013-04-25 00:01:00,61.3,47.3,30.00,NW,319,4.0,20.0,60,0.00,,,0.00,meteohub,2013-04-25 04:01:00,
2013-04-25 00:02:00,61.3,47.3,30.00,WSW,244,4.0,20.0,60,0.00,,,0.00,meteohub,2013-04-25 04:02:00,
2013-04-25 00:07:00,61.2,46.8,30.00,SW,235,10.0,20.0,59,0.00,,,0.00,meteohub,2013-04-25 04:07:00,
2013-04-25 00:12:00,61.2,46.8,30.00,North,356,9.0,19.0,59,0.00,,,0.00,meteohub,2013-04-25 04:12:00,
2013-04-25 00:17:00,61.2,47.1,30.01,West,265,5.0,19.0,60,0.00,,,0.00,meteohub,2013-04-25 04:17:00,
2013-04-25 00:22:00,61.0,47.5,30.02,West,276,7.0,17.0,61,0.00,,,0.00,meteohub,2013-04-25 04:22:00,
2013-04-25 00:27:00,60.4,48.2,30.02,North,353,7.0,16.0,64,0.00,,,0.00,meteohub,2013-04-25 04:27:00,
2013-04-25 00:32:00,59.7,48.7,30.03,WNW,285,3.0,15.0,67,0.00,,,0.00,meteohub,2013-04-25 04:32:00,
2013-04-25 00:37:00,59.2,49.1,30.04,NNW,337,10.0,14.0,69,0.00,,,0.00,meteohub,2013-04-25 04:37:00,
2013-04-25 00:42:00,58.5,49.1,30.04,WNW,284,6.0,14.0,71,0.00,,,0.00,meteohub,2013-04-25 04:42:00,
2013-04-25 00:47:00,57.0,48.7,30.04,East,85,6.0,15.0,74,0.00,,,0.00,meteohub,2013-04-25 04:47:00,
2013-04-25 00:52:00,55.9,47.8,30.04,WNW,303,9.0,15.0,74,0.00,,,0.00,meteohub,2013-04-25 04:52:00,
2013-04-25 00:57:00,55.8,47.3,30.04,West,263,4.0,14.0,73,0.00,,,0.00,meteohub,2013-04-25 04:57:00,
2013-04-25 01:02:00,55.6,46.4,30.04,NNE,30,0.0,19.0,71,0.00,,,0.00,meteohub,2013-04-25 05:02:00,
2013-04-25 01:07:00,55.8,46.6,30.05,West,278,3.0,19.0,71,0.00,,,0.00,meteohub,2013-04-25 05:07:00,
2013-04-25 01:12:00,55.8,45.7,30.05,SSW,195,3.0,14.0,69,0.00,,,0.00,meteohub,2013-04-25 05:12:00,
2013-04-25 01:17:00,55.8,45.0,30.06,SW,235,5.0,12.0,67,0.00,,,0.00,meteohub,2013-04-25 05:17:00,
2013-04-25 01:22:00,55.6,42.3,30.06,WNW,290,3.0,15.0,61,0.00,,,0.00,meteohub,2013-04-25 05:22:00,
2013-04-25 01:27:00,55.2,42.1,30.06,North,349,5.0,15.0,61,0.00,,,0.00,meteohub,2013-04-25 05:27:00,
2013-04-25 01:32:00,54.9,40.3,30.06,West,277,14.0,21.0,58,0.00,,,0.00,meteohub,2013-04-25 05:32:00,
2013-04-25 01:37:00,54.5,39.6,30.06,WSW,239,2.0,21.0,57,0.00,,,0.00,meteohub,2013-04-25 05:37:00,
2013-04-25 01:42:00,54.1,38.8,30.06,WNW,300,10.0,27.0,56,0.00,,,0.00,meteohub,2013-04-25 05:42:00,
2013-04-25 01:46:00,54.0,38.1,30.06,West,271,8.0,27.0,55,0.00,,,0.00,meteohub,2013-04-25 05:46:00,
2013-04-25 01:52:00,53.8,38.5,30.06,NNE,19,2.0,27.0,56,0.00,,,0.00,meteohub,2013-04-25 05:52:00,
2013-04-25 01:57:00,53.2,38.8,30.07,NNE,13,4.0,20.0,58,0.00,,,0.00,meteohub,2013-04-25 05:57:00,
2013-04-25 02:02:00,52.9,39.4,30.07,West,276,7.0,17.0,60,0.00,,,0.00,meteohub,2013-04-25 06:02:00,
2013-04-25 02:07:00,52.5,39.0,30.07,West,269,1.0,16.0,60,0.00,,,0.00,meteohub,2013-04-25 06:07:00,
2013-04-25 02:12:00,52.5,39.0,30.07,West,267,2.0,11.0,60,0.00,,,0.00,meteohub,2013-04-25 06:12:00,
2013-04-25 02:17:00,52.5,39.4,30.08,NW,305,6.0,15.0,61,0.00,,,0.00,meteohub,2013-04-25 06:17:00,
2013-04-25 02:22:00,52.5,39.4,30.09,NW,315,5.0,15.0,61,0.00,,,0.00,meteohub,2013-04-25 06:22:00,
2013-04-25 02:27:00,52.3,37.0,30.09,WNW,287,8.0,15.0,56,0.00,,,0.00,meteohub,2013-04-25 06:27:00,
2013-04-25 02:32:00,52.2,36.0,30.09,NNW,329,1.0,22.0,54,0.00,,,0.00,meteohub,2013-04-25 06:32:00,
2013-04-25 02:37:00,52.2,36.5,30.09,SSE,164,3.0,22.0,55,0.00,,,0.00,meteohub,2013-04-25 06:37:00,
2013-04-25 02:42:00,52.0,35.8,30.09,SW,234,4.0,22.0,54,0.00,,,0.00,meteohub,2013-04-25 06:42:00,
2013-04-25 02:47:00,52.0,36.3,30.09,WSW,255,4.0,13.0,55,0.00,,,0.00,meteohub,2013-04-25 06:47:00,
2013-04-25 02:52:00,51.6,36.0,30.09,WSW,257,3.0,18.0,55,0.00,,,0.00,meteohub,2013-04-25 06:52:00,
2013-04-25 02:57:00,51.4,35.8,30.09,NW,309,2.0,18.0,55,0.00,,,0.00,meteohub,2013-04-25 06:57:00,
2013-04-25 03:02:00,51.3,35.6,30.10,NNW,339,2.0,18.0,55,0.00,,,0.00,meteohub,2013-04-25 07:02:00,
2013-04-25 03:07:00,51.1,35.4,30.10,West,262,11.0,17.0,55,0.00,,,0.00,meteohub,2013-04-25 07:07:00,
2013-04-25 03:12:00,50.7,36.0,30.12,NNW,341,6.0,17.0,57,0.00,,,0.00,meteohub,2013-04-25 07:12:00,
2013-04-25 03:17:00,50.5,36.3,30.11,West,280,18.0,18.0,58,0.00,,,0.00,meteohub,2013-04-25 07:17:00,
2013-04-25 03:22:00,50.4,35.8,30.11,West,270,7.0,18.0,57,0.00,,,0.00,meteohub,2013-04-25 07:22:00,
2013-04-25 03:27:00,50.2,36.3,30.12,NW,312,6.0,18.0,59,0.00,,,0.00,meteohub,2013-04-25 07:27:00,
2013-04-25 03:31:00,49.8,36.5,30.12,NW,312,7.0,18.0,60,0.00,,,0.00,meteohub,2013-04-25 07:31:00,
2013-04-25 03:37:00,49.3,36.3,30.12,NNW,339,5.0,18.0,61,0.00,,,0.00,meteohub,2013-04-25 07:37:00,
2013-04-25 03:42:00,49.1,36.3,30.13,NE,56,3.0,18.0,61,0.00,,,0.00,meteohub,2013-04-25 07:42:00,
2013-04-25 03:47:00,48.7,35.4,30.14,West,271,10.0,18.0,60,0.00,,,0.00,meteohub,2013-04-25 07:47:00,
2013-04-25 03:52:00,48.6,35.2,30.14,WSW,250,1.0,12.0,60,0.00,,,0.00,meteohub,2013-04-25 07:52:00,
2013-04-25 03:57:00,48.4,34.3,30.15,North,5,6.0,12.0,58,0.00,,,0.00,meteohub,2013-04-25 07:57:00,
2013-04-25 04:02:00,48.0,34.3,30.15,West,274,8.0,15.0,59,0.00,,,0.00,meteohub,2013-04-25 08:02:00,
2013-04-25 04:07:00,48.0,34.3,30.15,West,278,7.0,15.0,59,0.00,,,0.00,meteohub,2013-04-25 08:07:00,
2013-04-25 04:12:00,47.8,33.8,30.16,WNW,302,4.0,16.0,58,0.00,,,0.00,meteohub,2013-04-25 08:12:00,
2013-04-25 04:17:00,47.7,33.3,30.16,NE,52,1.0,16.0,57,0.00,,,0.00,meteohub,2013-04-25 08:17:00,
2013-04-25 04:22:00,47.7,32.7,30.17,NNW,329,7.0,16.0,56,0.00,,,0.00,meteohub,2013-04-25 08:22:00,
2013-04-25 04:27:00,47.7,32.4,30.17,NNW,328,10.0,14.0,55,0.00,,,0.00,meteohub,2013-04-25 08:27:00,
2013-04-25 04:32:00,47.5,32.2,30.17,West,268,12.0,19.0,55,0.00,,,0.00,meteohub,2013-04-25 08:32:00,
2013-04-25 04:37:00,47.3,32.0,30.17,NW,311,1.0,19.0,55,0.00,,,0.00,meteohub,2013-04-25 08:37:00,
2013-04-25 04:42:00,47.1,31.8,30.17,East,79,1.0,19.0,55,0.00,,,0.00,meteohub,2013-04-25 08:42:00,
2013-04-25 04:47:00,47.1,32.2,30.17,NW,316,4.0,16.0,56,0.00,,,0.00,meteohub,2013-04-25 08:47:00,
2013-04-25 04:52:00,46.9,32.0,30.18,WSW,245,3.0,16.0,56,0.00,,,0.00,meteohub,2013-04-25 08:52:00,
2013-04-25 04:57:00,46.8,31.8,30.19,North,349,4.0,14.0,56,0.00,,,0.00,meteohub,2013-04-25 08:57:00,
2013-04-25 05:02:00,46.6,31.6,30.19,WNW,289,1.0,14.0,56,0.00,,,0.00,meteohub,2013-04-25 09:02:00,
2013-04-25 05:07:00,46.2,31.8,30.20,NNW,328,5.0,14.0,57,0.00,,,0.00,meteohub,2013-04-25 09:07:00,
2013-04-25 05:12:00,46.0,31.6,30.20,WNW,298,3.0,14.0,57,0.00,,,0.00,meteohub,2013-04-25 09:12:00,
2013-04-25 05:17:00,45.9,32.0,30.21,NW,309,7.0,11.0,58,0.00,,,0.00,meteohub,2013-04-25 09:17:00,
2013-04-25 05:22:00,45.9,32.0,30.21,South,180,2.0,11.0,58,0.00,,,0.00,meteohub,2013-04-25 09:22:00,
2013-04-25 05:27:00,45.7,31.8,30.21,NW,320,13.0,13.0,58,0.00,,,0.00,meteohub,2013-04-25 09:27:00,
2013-04-25 05:32:00,45.7,32.2,30.22,West,278,5.0,13.0,59,0.00,,,0.00,meteohub,2013-04-25 09:32:00,
2013-04-25 05:37:00,45.5,32.0,30.22,West,280,8.0,15.0,59,0.00,,,0.00,meteohub,2013-04-25 09:37:00,
2013-04-25 05:42:00,45.5,32.0,30.22,NNE,32,3.0,15.0,59,0.00,,,0.00,meteohub,2013-04-25 09:42:00,
2013-04-25 05:47:00,45.3,32.2,30.22,West,267,4.0,15.0,60,0.00,,,0.00,meteohub,2013-04-25 09:47:00,
2013-04-25 05:52:00,45.1,32.5,30.22,WNW,297,3.0,15.0,61,0.00,,,0.00,meteohub,2013-04-25 09:52:00,
2013-04-25 05:57:00,45.0,32.4,30.23,NW,321,7.0,14.0,61,0.00,,,0.00,meteohub,2013-04-25 09:57:00,
2013-04-25 06:02:00,45.0,32.4,30.24,NW,308,1.0,14.0,61,0.00,,,0.00,meteohub,2013-04-25 10:02:00,
2013-04-25 06:07:00,44.8,32.2,30.24,NNW,342,0.0,9.0,61,0.00,,,0.00,meteohub,2013-04-25 10:07:00,
2013-04-25 06:12:00,44.8,32.5,30.24,WNW,302,1.0,9.0,62,0.00,,,0.00,meteohub,2013-04-25 10:12:00,
2013-04-25 06:17:00,44.4,32.2,30.24,WNW,297,0.0,9.0,62,0.00,,,0.00,meteohub,2013-04-25 10:17:00,
2013-04-25 06:22:00,44.2,32.4,30.25,NW,323,4.0,9.0,63,0.00,,,0.00,meteohub,2013-04-25 10:22:00,
2013-04-25 06:27:00,44.2,32.4,30.25,NE,44,0.0,6.0,63,0.00,,,0.00,meteohub,2013-04-25 10:27:00,
2013-04-25 06:32:00,44.1,32.4,30.25,WNW,300,2.0,6.0,63,0.00,,,0.00,meteohub,2013-04-25 10:32:00,
2013-04-25 06:37:00,44.1,32.7,30.25,WNW,295,3.0,8.0,64,0.00,,,0.00,meteohub,2013-04-25 10:37:00,
2013-04-25 06:42:00,44.1,32.4,30.25,NW,316,4.0,8.0,63,0.00,,,0.00,meteohub,2013-04-25 10:42:00,
2013-04-25 06:47:00,44.2,32.4,30.25,NNW,343,3.0,11.0,63,0.00,,,0.00,meteohub,2013-04-25 10:47:00,
2013-04-25 06:52:00,44.4,32.5,30.26,NNW,338,4.0,11.0,63,0.00,,,0.00,meteohub,2013-04-25 10:52:00,
2013-04-25 06:57:00,44.4,32.5,30.26,WNW,293,3.0,11.0,63,0.00,,,0.00,meteohub,2013-04-25 10:57:00,
2013-04-25 07:02:00,44.4,32.5,30.26,WNW,293,2.0,11.0,63,0.00,,,0.00,meteohub,2013-04-25 11:02:00,
2013-04-25 07:07:00,44.4,33.1,30.26,SW,228,0.0,7.0,64,0.00,,,0.00,meteohub,2013-04-25 11:07:00,
2013-04-25 07:12:00,44.4,33.1,30.27,NW,305,0.0,7.0,64,0.00,,,0.00,meteohub,2013-04-25 11:12:00,
2013-04-25 07:17:00,44.6,32.7,30.27,North,356,0.0,7.0,63,0.00,,,0.00,meteohub,2013-04-25 11:17:00,
2013-04-25 07:22:00,44.8,33.3,30.27,West,259,1.0,6.0,64,0.00,,,0.00,meteohub,2013-04-25 11:22:00,
2013-04-25 07:27:00,45.0,33.1,30.27,NNW,328,2.0,9.0,63,0.00,,,0.00,meteohub,2013-04-25 11:27:00,
2013-04-25 07:32:00,45.0,32.7,30.27,West,269,4.0,10.0,62,0.00,,,0.00,meteohub,2013-04-25 11:32:00,
2013-04-25 07:36:00,45.1,32.9,30.27,NE,38,3.0,10.0,62,0.00,,,0.00,meteohub,2013-04-25 11:36:00,
2013-04-25 07:42:00,45.3,33.1,30.27,WNW,295,3.0,10.0,62,0.00,,,0.00,meteohub,2013-04-25 11:42:00,
2013-04-25 07:46:00,45.5,32.9,30.27,WNW,299,9.0,12.0,61,0.00,,,0.00,meteohub,2013-04-25 11:46:00,
2013-04-25 07:51:00,45.7,32.2,30.28,NW,316,2.0,15.0,59,0.00,,,0.00,meteohub,2013-04-25 11:51:00,
2013-04-25 07:57:00,45.9,32.4,30.28,NW,306,7.0,15.0,59,0.00,,,0.00,meteohub,2013-04-25 11:57:00,
2013-04-25 08:02:00,46.0,32.5,30.28,North,10,5.0,12.0,59,0.00,,,0.00,meteohub,2013-04-25 12:02:00,
2013-04-25 08:07:00,46.2,32.2,30.29,WSW,239,7.0,11.0,58,0.00,,,0.00,meteohub,2013-04-25 12:07:00,
2013-04-25 08:12:00,46.6,32.2,30.28,NNW,339,5.0,12.0,57,0.00,,,0.00,meteohub,2013-04-25 12:12:00,
2013-04-25 08:17:00,46.8,32.4,30.29,NW,309,7.0,12.0,57,0.00,,,0.00,meteohub,2013-04-25 12:17:00,
2013-04-25 08:22:00,46.8,32.4,30.28,WNW,297,4.0,12.0,57,0.00,,,0.00,meteohub,2013-04-25 12:22:00,
2013-04-25 08:27:00,46.8,32.4,30.29,West,264,12.0,18.0,57,0.00,,,0.00,meteohub,2013-04-25 12:27:00,
2013-04-25 08:32:00,46.9,32.0,30.29,NW,309,2.0,18.0,56,0.00,,,0.00,meteohub,2013-04-25 12:32:00,
2013-04-25 08:37:00,47.1,32.2,30.29,NNW,335,5.0,18.0,56,0.00,,,0.00,meteohub,2013-04-25 12:37:00,
2013-04-25 08:42:00,46.9,32.5,30.29,ENE,73,0.0,13.0,57,0.00,,,0.00,meteohub,2013-04-25 12:42:00,
2013-04-25 08:47:00,47.5,32.5,30.29,WNW,289,0.0,12.0,56,0.00,,,0.00,meteohub,2013-04-25 12:47:00,
2013-04-25 08:52:00,47.7,32.4,30.29,North,359,2.0,12.0,55,0.00,,,0.00,meteohub,2013-04-25 12:52:00,
2013-04-25 08:57:00,48.0,32.5,30.29,NW,314,3.0,9.0,55,0.00,,,0.00,meteohub,2013-04-25 12:57:00,
2013-04-25 09:02:00,48.2,32.7,30.30,WNW,288,3.0,11.0,55,0.00,,,0.00,meteohub,2013-04-25 13:02:00,
2013-04-25 09:07:00,48.4,32.9,30.29,WSW,251,2.0,11.0,55,0.00,,,0.00,meteohub,2013-04-25 13:07:00,
2013-04-25 09:12:00,48.4,32.5,30.29,SW,226,7.0,8.0,54,0.00,,,0.00,meteohub,2013-04-25 13:12:00,
2013-04-25 09:17:00,48.4,33.4,30.29,NW,312,5.0,12.0,56,0.00,,,0.00,meteohub,2013-04-25 13:17:00,
2013-04-25 09:22:00,48.7,32.9,30.29,NW,322,4.0,12.0,54,0.00,,,0.00,meteohub,2013-04-25 13:22:00,
2013-04-25 09:27:00,48.6,32.7,30.29,ENE,76,3.0,9.0,54,0.00,,,0.00,meteohub,2013-04-25 13:27:00,
2013-04-25 09:32:00,48.7,32.9,30.30,NNW,342,1.0,8.0,54,0.00,,,0.00,meteohub,2013-04-25 13:32:00,
2013-04-25 09:37:00,48.9,33.4,30.30,NW,315,1.0,9.0,55,0.00,,,0.00,meteohub,2013-04-25 13:37:00,
2013-04-25 09:42:00,49.3,32.9,30.30,WNW,289,2.0,9.0,53,0.00,,,0.00,meteohub,2013-04-25 13:42:00,
2013-04-25 09:47:00,49.5,33.1,30.30,WNW,290,3.0,9.0,53,0.00,,,0.00,meteohub,2013-04-25 13:47:00,
2013-04-25 09:52:00,49.8,34.3,30.30,NW,307,0.0,8.0,55,0.00,,,0.00,meteohub,2013-04-25 13:52:00,
2013-04-25 09:57:00,50.2,33.6,30.30,South,180,2.0,13.0,53,0.00,,,0.00,meteohub,2013-04-25 13:57:00,
2013-04-25 10:02:00,50.2,33.3,30.30,SW,219,5.0,13.0,52,0.00,,,0.00,meteohub,2013-04-25 14:02:00,
2013-04-25 10:07:00,49.8,32.4,30.30,WNW,293,3.0,13.0,51,0.00,,,0.00,meteohub,2013-04-25 14:07:00,
2013-04-25 10:12:00,50.0,32.5,30.30,NNW,327,2.0,8.0,51,0.00,,,0.00,meteohub,2013-04-25 14:12:00,
2013-04-25 10:17:00,49.8,32.0,30.30,WNW,294,7.0,11.0,50,0.00,,,0.00,meteohub,2013-04-25 14:17:00,
2013-04-25 10:22:00,49.6,31.8,30.30,NE,38,5.0,11.0,50,0.00,,,0.00,meteohub,2013-04-25 14:22:00,
2013-04-25 10:27:00,50.2,32.2,30.31,West,277,6.0,11.0,50,0.00,,,0.00,meteohub,2013-04-25 14:27:00,
2013-04-25 10:32:00,50.2,31.8,30.31,NNW,345,3.0,10.0,49,0.00,,,0.00,meteohub,2013-04-25 14:32:00,
2013-04-25 10:37:00,50.2,32.2,30.30,North,8,2.0,10.0,50,0.00,,,0.00,meteohub,2013-04-25 14:37:00,
2013-04-25 10:42:00,50.4,32.0,30.30,WSW,256,5.0,10.0,49,0.00,,,0.00,meteohub,2013-04-25 14:42:00,
2013-04-25 10:47:00,50.4,32.0,30.31,NW,320,7.0,8.0,49,0.00,,,0.00,meteohub,2013-04-25 14:47:00,
2013-04-25 10:52:00,50.5,32.0,30.31,West,259,0.0,9.0,49,0.00,,,0.00,meteohub,2013-04-25 14:52:00,
2013-04-25 10:57:00,50.4,31.5,30.31,NNW,345,1.0,9.0,48,0.00,,,0.00,meteohub,2013-04-25 14:57:00,
2013-04-25 11:02:00,50.7,31.3,30.31,NNW,339,4.0,9.0,47,0.00,,,0.00,meteohub,2013-04-25 15:02:00,
2013-04-25 11:07:00,50.9,31.8,30.31,NNE,23,6.0,9.0,48,0.00,,,0.00,meteohub,2013-04-25 15:07:00,
2013-04-25 11:12:00,51.1,32.0,30.31,NNW,345,4.0,9.0,48,0.00,,,0.00,meteohub,2013-04-25 15:12:00,
2013-04-25 11:17:00,51.4,32.4,30.31,ENE,71,2.0,9.0,48,0.00,,,0.00,meteohub,2013-04-25 15:17:00,
2013-04-25 11:22:00,51.1,32.5,30.30,ENE,67,4.0,10.0,49,0.00,,,0.00,meteohub,2013-04-25 15:22:00,
2013-04-25 11:27:00,51.3,33.8,30.31,West,274,5.0,10.0,51,0.00,,,0.00,meteohub,2013-04-25 15:27:00,
2013-04-25 11:32:00,51.3,32.7,30.30,SW,226,1.0,10.0,49,0.00,,,0.00,meteohub,2013-04-25 15:32:00,
2013-04-25 11:37:00,52.0,33.4,30.30,ENE,65,4.0,7.0,49,0.00,,,0.00,meteohub,2013-04-25 15:37:00,
2013-04-25 11:42:00,52.0,32.4,30.30,WSW,248,7.0,8.0,47,0.00,,,0.00,meteohub,2013-04-25 15:42:00,
2013-04-25 11:47:00,52.2,33.6,30.30,NW,312,9.0,11.0,49,0.00,,,0.00,meteohub,2013-04-25 15:47:00,
2013-04-25 11:52:00,52.2,33.6,30.30,ENE,77,4.0,11.0,49,0.00,,,0.00,meteohub,2013-04-25 15:52:00,
2013-04-25 11:57:00,52.7,32.5,30.30,WSW,258,1.0,11.0,46,0.00,,,0.00,meteohub,2013-04-25 15:57:00,
2013-04-25 12:02:00,52.9,32.2,30.30,West,276,4.0,9.0,45,0.00,,,0.00,meteohub,2013-04-25 16:02:00,
2013-04-25 12:07:00,52.9,30.9,30.30,WNW,295,0.0,9.0,43,0.00,,,0.00,meteohub,2013-04-25 16:07:00,
2013-04-25 12:12:00,52.9,32.2,30.29,West,272,7.0,9.0,45,0.00,,,0.00,meteohub,2013-04-25 16:12:00,
2013-04-25 12:17:00,53.6,32.7,30.29,WNW,296,5.0,9.0,45,0.00,,,0.00,meteohub,2013-04-25 16:17:00,
2013-04-25 12:22:00,53.6,32.7,30.29,NE,49,3.0,9.0,45,0.00,,,0.00,meteohub,2013-04-25 16:22:00,
2013-04-25 12:27:00,54.0,33.6,30.29,West,276,2.0,10.0,46,0.00,,,0.00,meteohub,2013-04-25 16:27:00,
2013-04-25 12:32:00,54.3,32.9,30.29,North,8,8.0,10.0,44,0.00,,,0.00,meteohub,2013-04-25 16:32:00,
2013-04-25 12:37:00,54.1,31.5,30.29,North,358,2.0,8.0,42,0.00,,,0.00,meteohub,2013-04-25 16:37:00,
2013-04-25 12:42:00,54.0,31.5,30.28,ESE,122,0.0,8.0,42,0.00,,,0.00,meteohub,2013-04-25 16:42:00,
2013-04-25 12:47:00,54.7,31.5,30.28,NNE,30,1.0,8.0,41,0.00,,,0.00,meteohub,2013-04-25 16:47:00,
2013-04-25 12:52:00,54.9,30.4,30.28,North,349,2.0,8.0,39,0.00,,,0.00,meteohub,2013-04-25 16:52:00,
2013-04-25 12:57:00,55.2,32.5,30.28,North,353,5.0,7.0,42,0.00,,,0.00,meteohub,2013-04-25 16:57:00,
2013-04-25 13:02:00,55.0,31.1,30.28,WSW,247,1.0,7.0,40,0.00,,,0.00,meteohub,2013-04-25 17:02:00,
2013-04-25 13:07:00,55.2,32.5,30.28,West,267,2.0,7.0,42,0.00,,,0.00,meteohub,2013-04-25 17:07:00,
2013-04-25 13:12:00,55.8,32.4,30.28,NNW,343,1.0,7.0,41,0.00,,,0.00,meteohub,2013-04-25 17:12:00,
2013-04-25 13:17:00,56.5,32.4,30.28,NW,305,2.0,10.0,40,0.00,,,0.00,meteohub,2013-04-25 17:17:00,
2013-04-25 13:23:00,56.3,32.4,30.28,East,98,1.0,10.0,40,0.00,,,0.00,meteohub,2013-04-25 17:23:00,
2013-04-25 13:28:00,56.5,33.1,30.27,SSE,150,0.0,10.0,41,0.00,,,0.00,meteohub,2013-04-25 17:28:00,
2013-04-25 13:33:00,57.4,33.3,30.27,West,259,0.0,5.0,40,0.00,,,0.00,meteohub,2013-04-25 17:33:00,
2013-04-25 13:38:00,57.0,28.9,30.27,NNE,25,8.0,8.0,34,0.00,,,0.00,meteohub,2013-04-25 17:38:00,
2013-04-25 13:43:00,57.6,30.7,30.27,NW,305,3.0,8.0,36,0.00,,,0.00,meteohub,2013-04-25 17:43:00,
2013-04-25 13:48:00,57.6,30.7,30.27,SW,231,1.0,8.0,36,0.00,,,0.00,meteohub,2013-04-25 17:48:00,
2013-04-25 13:53:00,57.6,28.6,30.27,WNW,297,2.0,8.0,33,0.00,,,0.00,meteohub,2013-04-25 17:53:00,
2013-04-25 13:58:00,57.6,29.5,30.27,South,188,2.0,7.0,34,0.00,,,0.00,meteohub,2013-04-25 17:58:00,
2013-04-25 14:03:00,57.9,28.9,30.26,East,95,1.0,7.0,33,0.00,,,0.00,meteohub,2013-04-25 18:03:00,
2013-04-25 14:08:00,58.3,30.7,30.26,ESE,103,1.0,4.0,35,0.00,,,0.00,meteohub,2013-04-25 18:08:00,
2013-04-25 14:13:00,58.3,29.3,30.26,NW,307,2.0,8.0,33,0.00,,,0.00,meteohub,2013-04-25 18:13:00,
2013-04-25 14:18:00,58.5,30.2,30.26,East,82,5.0,8.0,34,0.00,,,0.00,meteohub,2013-04-25 18:18:00,
2013-04-25 14:23:00,58.8,30.6,30.26,West,273,0.0,8.0,34,0.00,,,0.00,meteohub,2013-04-25 18:23:00,
2013-04-25 14:28:00,59.4,31.6,30.26,WNW,285,6.0,8.0,35,0.00,,,0.00,meteohub,2013-04-25 18:28:00,
2013-04-25 14:33:00,59.2,30.0,30.25,North,359,3.0,8.0,33,0.00,,,0.00,meteohub,2013-04-25 18:33:00,
2013-04-25 14:38:00,59.5,31.8,30.25,East,84,1.0,8.0,35,0.00,,,0.00,meteohub,2013-04-25 18:38:00,
2013-04-25 14:43:00,59.0,30.7,30.25,NNW,339,2.0,9.0,34,0.00,,,0.00,meteohub,2013-04-25 18:43:00,
2013-04-25 14:48:00,59.2,30.7,30.25,North,11,2.0,9.0,34,0.00,,,0.00,meteohub,2013-04-25 18:48:00,
2013-04-25 14:53:00,59.4,30.2,30.25,NNW,332,2.0,9.0,33,0.00,,,0.00,meteohub,2013-04-25 18:53:00,
2013-04-25 14:58:00,60.3,31.1,30.25,WSW,250,2.0,9.0,33,0.00,,,0.00,meteohub,2013-04-25 18:58:00,
2013-04-25 15:03:00,60.3,31.1,30.25,WNW,302,4.0,9.0,33,0.00,,,0.00,meteohub,2013-04-25 19:03:00,
2013-04-25 15:08:00,60.3,31.8,30.25,WNW,290,2.0,9.0,34,0.00,,,0.00,meteohub,2013-04-25 19:08:00,
2013-04-25 15:13:00,60.6,30.6,30.25,SSE,153,2.0,8.0,32,0.00,,,0.00,meteohub,2013-04-25 19:13:00,
2013-04-25 15:18:00,61.2,31.1,30.24,South,181,2.0,6.0,32,0.00,,,0.00,meteohub,2013-04-25 19:18:00,
2013-04-25 15:23:00,61.2,31.1,30.24,East,79,2.0,7.0,32,0.00,,,0.00,meteohub,2013-04-25 19:23:00,
2013-04-25 15:28:00,61.7,32.4,30.25,NNW,344,1.0,7.0,33,0.00,,,0.00,meteohub,2013-04-25 19:28:00,
2013-04-25 15:33:00,61.3,32.0,30.24,WNW,284,3.0,8.0,33,0.00,,,0.00,meteohub,2013-04-25 19:33:00,
2013-04-25 15:38:00,61.3,32.0,30.24,ENE,61,3.0,8.0,33,0.00,,,0.00,meteohub,2013-04-25 19:38:00,
2013-04-25 15:43:00,61.2,31.1,30.24,East,85,2.0,8.0,32,0.00,,,0.00,meteohub,2013-04-25 19:43:00,
2013-04-25 15:48:00,61.2,31.1,30.24,NE,40,0.0,7.0,32,0.00,,,0.00,meteohub,2013-04-25 19:48:00,
2013-04-25 15:53:00,61.7,30.7,30.24,ESE,118,1.0,7.0,31,0.00,,,0.00,meteohub,2013-04-25 19:53:00,
2013-04-25 15:58:00,62.2,32.0,30.23,WSW,245,3.0,7.0,32,0.00,,,0.00,meteohub,2013-04-25 19:58:00,
2013-04-25 16:03:00,63.1,32.7,30.23,SSW,205,4.0,6.0,32,0.00,,,0.00,meteohub,2013-04-25 20:03:00,
2013-04-25 16:08:00,63.0,31.1,30.23,NNW,338,3.0,7.0,30,0.00,,,0.00,meteohub,2013-04-25 20:08:00,
2013-04-25 16:13:00,63.0,29.3,30.23,SE,132,3.0,7.0,28,0.00,,,0.00,meteohub,2013-04-25 20:13:00,
2013-04-25 16:18:00,62.6,29.1,30.23,West,269,2.0,7.0,28,0.00,,,0.00,meteohub,2013-04-25 20:18:00,
2013-04-25 16:23:00,62.4,28.0,30.23,NW,308,6.0,7.0,27,0.00,,,0.00,meteohub,2013-04-25 20:23:00,
2013-04-25 16:28:00,62.2,27.0,30.23,WSW,253,2.0,9.0,26,0.00,,,0.00,meteohub,2013-04-25 20:28:00,
2013-04-25 16:33:00,62.8,29.1,30.23,WNW,290,5.0,9.0,28,0.00,,,0.00,meteohub,2013-04-25 20:33:00,
2013-04-25 16:38:00,62.6,29.1,30.23,West,262,0.0,9.0,28,0.00,,,0.00,meteohub,2013-04-25 20:38:00,
2013-04-25 16:43:00,63.0,29.3,30.23,West,276,0.0,7.0,28,0.00,,,0.00,meteohub,2013-04-25 20:43:00,
2013-04-25 16:48:00,63.1,28.6,30.23,West,281,0.0,7.0,27,0.00,,,0.00,meteohub,2013-04-25 20:48:00,
2013-04-25 16:53:00,64.4,30.6,30.22,SE,127,0.0,7.0,28,0.00,,,0.00,meteohub,2013-04-25 20:53:00,
2013-04-25 16:59:00,64.8,29.1,30.22,SW,224,4.0,7.0,26,0.00,,,0.00,meteohub,2013-04-25 20:59:00,
2013-04-25 17:04:00,64.0,29.3,30.22,East,79,2.0,4.0,27,0.00,,,0.00,meteohub,2013-04-25 21:04:00,
2013-04-25 17:09:00,63.9,29.3,30.22,South,188,3.0,4.0,27,0.00,,,0.00,meteohub,2013-04-25 21:09:00,
2013-04-25 17:14:00,64.0,28.4,30.23,West,264,4.0,4.0,26,0.00,,,0.00,meteohub,2013-04-25 21:14:00,
2013-04-25 17:19:00,63.7,29.1,30.23,SW,232,3.0,9.0,27,0.00,,,0.00,meteohub,2013-04-25 21:19:00,
2013-04-25 17:24:00,63.3,28.8,30.22,WNW,293,4.0,9.0,27,0.00,,,0.00,meteohub,2013-04-25 21:24:00,
2013-04-25 17:29:00,63.1,28.6,30.22,SW,226,3.0,9.0,27,0.00,,,0.00,meteohub,2013-04-25 21:29:00,
2013-04-25 17:34:00,63.1,29.5,30.22,WNW,290,2.0,9.0,28,0.00,,,0.00,meteohub,2013-04-25 21:34:00,
2013-04-25 17:39:00,63.3,28.8,30.22,NNW,338,4.0,7.0,27,0.00,,,0.00,meteohub,2013-04-25 21:39:00,
2013-04-25 17:44:00,63.1,28.6,30.22,NNW,328,0.0,6.0,27,0.00,,,0.00,meteohub,2013-04-25 21:44:00,
2013-04-25 17:49:00,63.7,29.1,30.22,ENE,77,0.0,4.0,27,0.00,,,0.00,meteohub,2013-04-25 21:49:00,
2013-04-25 17:54:00,63.7,30.7,30.22,ENE,66,0.0,4.0,29,0.00,,,0.00,meteohub,2013-04-25 21:54:00,
2013-04-25 17:59:00,63.7,28.2,30.22,WNW,286,1.0,3.0,26,0.00,,,0.00,meteohub,2013-04-25 21:59:00,
2013-04-25 18:04:00,64.0,28.4,30.22,West,280,0.0,4.0,26,0.00,,,0.00,meteohub,2013-04-25 22:04:00,
2013-04-25 18:09:00,64.9,28.2,30.23,NW,319,0.0,4.0,25,0.00,,,0.00,meteohub,2013-04-25 22:09:00,
2013-04-25 18:14:00,64.9,28.2,30.23,NW,309,1.0,4.0,25,0.00,,,0.00,meteohub,2013-04-25 22:14:00,
2013-04-25 18:19:00,65.1,30.4,30.23,North,352,0.0,3.0,27,0.00,,,0.00,meteohub,2013-04-25 22:19:00,
2013-04-25 18:24:00,65.7,28.9,30.22,North,4,0.0,3.0,25,0.00,,,0.00,meteohub,2013-04-25 22:24:00,
2013-04-25 18:29:00,66.4,31.5,30.23,SSW,194,0.0,3.0,27,0.00,,,0.00,meteohub,2013-04-25 22:29:00,
2013-04-25 18:34:00,66.2,28.4,30.23,SW,231,1.0,2.0,24,0.00,,,0.00,meteohub,2013-04-25 22:34:00,
2013-04-25 18:39:00,65.8,28.9,30.23,West,270,0.0,2.0,25,0.00,,,0.00,meteohub,2013-04-25 22:39:00,
2013-04-25 18:44:00,65.8,28.9,30.23,SSW,210,1.0,3.0,25,0.00,,,0.00,meteohub,2013-04-25 22:44:00,
2013-04-25 18:49:00,66.0,31.1,30.23,SW,218,0.0,3.0,27,0.00,,,0.00,meteohub,2013-04-25 22:49:00,
2013-04-25 18:54:00,64.9,30.2,30.23,WSW,257,0.0,3.0,27,0.00,,,0.00,meteohub,2013-04-25 22:54:00,
2013-04-25 18:59:00,64.2,28.6,30.23,WSW,257,0.0,4.0,26,0.00,,,0.00,meteohub,2013-04-25 22:59:00,
2013-04-25 19:04:00,63.9,27.3,30.23,WSW,257,0.0,4.0,25,0.00,,,0.00,meteohub,2013-04-25 23:04:00,
2013-04-25 19:09:00,63.5,28.0,30.23,WSW,257,0.0,4.0,26,0.00,,,0.00,meteohub,2013-04-25 23:09:00,
2013-04-25 19:14:00,62.8,28.2,30.23,WSW,257,0.0,1.0,27,0.00,,,0.00,meteohub,2013-04-25 23:14:00,
2013-04-25 19:19:00,62.1,28.6,30.23,East,79,1.0,1.0,28,0.00,,,0.00,meteohub,2013-04-25 23:19:00,
2013-04-25 19:24:00,61.5,32.2,30.23,East,101,0.0,1.0,33,0.00,,,0.00,meteohub,2013-04-25 23:24:00,
2013-04-25 19:29:00,61.0,33.1,30.23,East,101,0.0,3.0,35,0.00,,,0.00,meteohub,2013-04-25 23:29:00,
2013-04-25 19:34:00,60.3,32.5,30.23,East,101,0.0,3.0,35,0.00,,,0.00,meteohub,2013-04-25 23:34:00,
2013-04-25 19:39:00,59.7,34.0,30.23,East,101,0.0,3.0,38,0.00,,,0.00,meteohub,2013-04-25 23:39:00,
2013-04-25 19:44:00,59.2,34.2,30.23,East,101,0.0,0.0,39,0.00,,,0.00,meteohub,2013-04-25 23:44:00,
2013-04-25 19:49:00,58.5,34.9,30.23,East,101,0.0,0.0,41,0.00,,,0.00,meteohub,2013-04-25 23:49:00,
2013-04-25 19:54:00,57.7,35.4,30.24,ESE,102,0.0,0.0,43,0.00,,,0.00,meteohub,2013-04-25 23:54:00,
2013-04-25 19:59:00,57.0,36.0,30.24,East,101,0.0,1.0,45,0.00,,,0.00,meteohub,2013-04-25 23:59:00,
2013-04-25 20:04:00,56.3,35.2,30.24,ESE,102,0.0,1.0,45,0.00,,,0.00,meteohub,2013-04-26 00:04:00,
2013-04-25 20:09:00,55.9,35.4,30.24,East,101,0.0,1.0,46,0.00,,,0.00,meteohub,2013-04-26 00:09:00,
2013-04-25 20:14:00,55.6,36.1,30.24,East,101,0.0,0.0,48,0.00,,,0.00,meteohub,2013-04-26 00:14:00,
2013-04-25 20:19:00,54.9,36.1,30.24,ESE,102,0.0,0.0,49,0.00,,,0.00,meteohub,2013-04-26 00:19:00,
2013-04-25 20:24:00,54.3,36.1,30.25,ESE,102,0.0,0.0,50,0.00,,,0.00,meteohub,2013-04-26 00:24:00,
2013-04-25 20:29:00,54.0,36.3,30.25,ESE,102,0.0,0.0,51,0.00,,,0.00,meteohub,2013-04-26 00:29:00,
2013-04-25 20:34:00,53.2,36.5,30.25,ESE,102,0.0,0.0,53,0.00,,,0.00,meteohub,2013-04-26 00:34:00,
2013-04-25 20:39:00,52.9,36.7,30.25,ESE,102,0.0,0.0,54,0.00,,,0.00,meteohub,2013-04-26 00:39:00,
2013-04-25 20:44:00,52.3,36.7,30.25,East,101,0.0,0.0,55,0.00,,,0.00,meteohub,2013-04-26 00:44:00,
2013-04-25 20:49:00,51.6,36.9,30.25,East,101,0.0,0.0,57,0.00,,,0.00,meteohub,2013-04-26 00:49:00,
2013-04-25 20:54:00,51.3,37.4,30.25,ESE,102,0.0,0.0,59,0.00,,,0.00,meteohub,2013-04-26 00:54:00,
2013-04-25 20:59:00,51.1,37.8,30.26,East,101,0.0,0.0,60,0.00,,,0.00,meteohub,2013-04-26 00:59:00,
2013-04-25 21:04:00,50.7,37.4,30.26,ESE,102,0.0,0.0,60,0.00,,,0.00,meteohub,2013-04-26 01:04:00,
2013-04-25 21:09:00,50.4,37.4,30.27,ESE,102,0.0,0.0,61,0.00,,,0.00,meteohub,2013-04-26 01:09:00,
2013-04-25 21:14:00,50.2,37.6,30.27,ESE,102,0.0,0.0,62,0.00,,,0.00,meteohub,2013-04-26 01:14:00,
2013-04-25 21:19:00,49.8,37.8,30.27,ESE,102,0.0,0.0,63,0.00,,,0.00,meteohub,2013-04-26 01:19:00,
2013-04-25 21:24:00,49.6,37.6,30.27,East,101,0.0,0.0,63,0.00,,,0.00,meteohub,2013-04-26 01:24:00,
2013-04-25 21:29:00,49.6,37.2,30.27,ESE,109,1.0,0.0,62,0.00,,,0.00,meteohub,2013-04-26 01:29:00,
2013-04-25 21:34:00,50.5,37.9,30.27,SE,124,0.0,2.0,62,0.00,,,0.00,meteohub,2013-04-26 01:34:00,
2013-04-25 21:39:00,50.4,38.7,30.28,SE,124,0.0,2.0,64,0.00,,,0.00,meteohub,2013-04-26 01:39:00,
2013-04-25 21:44:00,49.8,38.1,30.28,SE,124,0.0,2.0,64,0.00,,,0.00,meteohub,2013-04-26 01:44:00,
2013-04-25 21:49:00,49.3,37.6,30.28,SE,124,0.0,0.0,64,0.00,,,0.00,meteohub,2013-04-26 01:49:00,
2013-04-25 21:54:00,48.9,37.8,30.29,SE,124,0.0,0.0,65,0.00,,,0.00,meteohub,2013-04-26 01:54:00,
2013-04-25 21:59:00,49.3,38.5,30.29,SE,124,0.0,0.0,66,0.00,,,0.00,meteohub,2013-04-26 01:59:00,
2013-04-25 22:04:00,48.9,38.1,30.30,SE,124,0.0,0.0,66,0.00,,,0.00,meteohub,2013-04-26 02:04:00,
2013-04-25 22:09:00,49.3,38.8,30.30,SE,124,0.0,0.0,67,0.00,,,0.00,meteohub,2013-04-26 02:09:00,
2013-04-25 22:14:00,49.5,39.4,30.30,SE,125,0.0,0.0,68,0.00,,,0.00,meteohub,2013-04-26 02:14:00,
2013-04-25 22:19:00,49.3,39.2,30.30,SE,124,0.0,0.0,68,0.00,,,0.00,meteohub,2013-04-26 02:19:00,
2013-04-25 22:24:00,49.1,39.4,30.30,SE,125,0.0,0.0,69,0.00,,,0.00,meteohub,2013-04-26 02:24:00,
2013-04-25 22:29:00,48.9,38.8,30.31,SE,124,0.0,0.0,68,0.00,,,0.00,meteohub,2013-04-26 02:29:00,
2013-04-25 22:34:00,48.9,39.2,30.31,SE,124,0.0,0.0,69,0.00,,,0.00,meteohub,2013-04-26 02:34:00,
2013-04-25 22:39:00,48.9,39.2,30.32,SE,124,0.0,0.0,69,0.00,,,0.00,meteohub,2013-04-26 02:39:00,
2013-04-25 22:44:00,49.3,39.2,30.32,SE,124,0.0,1.0,68,0.00,,,0.00,meteohub,2013-04-26 02:44:00,
2013-04-25 22:49:00,49.3,39.2,30.32,SE,124,0.0,1.0,68,0.00,,,0.00,meteohub,2013-04-26 02:49:00,
2013-04-25 22:54:00,49.3,39.6,30.32,SE,125,0.0,1.0,69,0.00,,,0.00,meteohub,2013-04-26 02:54:00,
2013-04-25 22:59:00,49.3,39.9,30.32,SE,124,0.0,0.0,70,0.00,,,0.00,meteohub,2013-04-26 02:59:00,
2013-04-25 23:04:00,49.1,40.5,30.32,SE,124,0.0,0.0,72,0.00,,,0.00,meteohub,2013-04-26 03:04:00,
2013-04-25 23:09:00,48.9,40.6,30.33,SE,124,0.0,1.0,73,0.00,,,0.00,meteohub,2013-04-26 03:09:00,
2013-04-25 23:14:00,48.7,40.8,30.33,SE,124,0.0,1.0,74,0.00,,,0.00,meteohub,2013-04-26 03:14:00,
2013-04-25 23:19:00,48.7,40.1,30.33,SE,125,0.0,0.0,72,0.00,,,0.00,meteohub,2013-04-26 03:19:00,
2013-04-25 23:24:00,48.7,40.5,30.33,SE,124,0.0,0.0,73,0.00,,,0.00,meteohub,2013-04-26 03:24:00,
2013-04-25 23:29:00,48.9,41.0,30.33,SE,125,0.0,0.0,74,0.00,,,0.00,meteohub,2013-04-26 03:29:00,
2013-04-25 23:34:00,49.1,41.2,30.34,West,273,1.0,0.0,74,0.00,,,0.00,meteohub,2013-04-26 03:34:00,
2013-04-25 23:39:00,49.6,39.9,30.34,WSW,250,2.0,2.0,69,0.00,,,0.00,meteohub,2013-04-26 03:39:00,
2013-04-25 23:44:00,50.5,40.5,30.34,West,272,1.0,3.0,68,0.00,,,0.00,meteohub,2013-04-26 03:44:00,
2013-04-25 23:49:00,50.9,39.9,30.34,WNW,285,0.0,3.0,66,0.00,,,0.00,meteohub,2013-04-26 03:49:00,
2013-04-25 23:54:00,51.1,41.2,30.34,WNW,285,0.0,3.0,69,0.00,,,0.00,meteohub,2013-04-26 03:54:00,
2013-04-25 23:59:00,50.5,40.8,30.34,ESE,108,1.0,2.0,69,0.00,,,0.00,meteohub,2013-04-26 03:59:00,